Location: Clason Point
(40.8136°N, 73.8618°W)
Time: 14:25:57
(UTC+00:00)

CZ-2C R/B - Pass Details

Date: 16 September 2019
Orbit: 639 x 705 km, 98.4° (Epoch: 19 October)

Event Time Altitude Azimuth Distance (km) Brightness Sun altitude
Rises 23:48:35 0° 21° (NNE) 2,977 7.0 -9.4°
Reaches altitude 10° 23:50:58 10° 30° (NNE) 2,054 6.1 -9.8°
Maximum altitude 23:55:07 37° 98° (E) 999 4.1 -10.6°
Drops below altitude 10° 23:59:12 10° 166° (SSE) 2,024 5.9 -11.3°
Sets 00:01:31 0° 175° (S) 2,928 6.8 -11.7°
